Tracking 25734 objects as of 26-May-2022
HD Live streaming from Space Station
objects crossing your sky now

SL-18 DEB

Track SL-18 DEB now!
10-day predictions


NORAD ID: 28950
Int'l Code: 1993-014AB
Perigee: 520.4 km
Apogee: 599.6 km
Inclination: 75.7 °
Period: 95.7 minutes
Semi major axis: 6930 km
RCS: 0.0115 m2 (small)
Launch date: March 25, 1993
Source: Commonwealth of Independent States (former USSR) (CIS)
Launch site: PLESETSK MISSILE AND SPACE COMPLEX (PKMTR)

Note: This is SATELLITE DEBRIS
aabbcc
Your satellite tracking list
Your tracking list is empty




NASA's NSSDC Master Catalog

Two Line Element Set (TLE):
1 28950U 93014AB  22144.44319023  .00079059  00000-0  53806-2 0  9994
2 28950  75.7302 311.7235 0057128 129.5986 260.7640 15.04569703934231
Source of the keplerian elements: AFSPC